カタログに戻る

FENGYUN 1C DEB

運用中PO
NORAD 46451·DEBRIS·🇨🇳 China

打ち上げ May 10, 1999 から Taiyuan Satellite Launch Center

Loading…

次のパス (今後24時間)

TLE

最新Source: Space-Track

元期: Sep 14, 2026, 18:49 UTC

1 46451U 99025EZG 26257.78455865  .00004257  00000-0  16352-2 0  9992
2 46451  98.1463 261.2828 0166345  94.4870  79.0086 14.23562400609304

AllMySatでFENGYUN 1C DEBをリアルタイム追跡

Download on the App Store